Roanoke, VA

6:26 AM EST on December 16, 2019 (GMT -0500)
Roanoke Regional-Woodrum

Weather History for KROA - October, 2019

Change the Weather History Date:

Saturday, October 12, 2019

  Actual Average Record
Temperature  
Mean Temperature 67 °F 59 °F  
Max Temperature 77 °F 70 °F 89 °F (1954)
Min Temperature 56 °F 48 °F 28 °F (1964)
Degree Days  
Heating Degree Days 0 7  
Month to date heating degree days 13 69  
Since 1 July heating degree days 14 118  
Cooling Degree Days 2 1  
Month to date cooling degree days 73 14  
Year to date cooling degree days 1757 1200  
Growing Degree Days 16 (Base 50)    
Moisture  
Dew Point 53 °F    
Average Humidity 74    
Maximum Humidity 93    
Minimum Humidity 54    
Precipitation  
Precipitation 0.00 in 0.10 in 1.75 in (1990)
Month to date precipitation 0.63 1.11  
Year to date precipitation 32.69 33.13  
Snow  
Snow 0.00 in - - ()
Month to date snowfall 0.0  
Since 1 July snowfall T  
Since 1 September snowfall 0.0  
Snow Depth 0.00 in    
Sea Level Pressure  
Sea Level Pressure 30.03 in    
Wind  
Wind Speed 5 mph (NNW)    
Max Wind Speed 18 mph    
Max Gust Speed 24 mph    
Visibility 10 miles    
Events      
T = Trace of Precipitation, MM = Missing Value Source: NWS Daily Summary

Daily Weather History Graph

Daily Weather History Graph

Search for Another Location

Airport or City:

Astronomy

Oct. 12, 2019 Rise Set
Actual Time 7:24 AM EDT 6:47 PM EDT
Civil Twilight 6:58 AM EDT 7:13 PM EDT
Nautical Twilight 6:28 AM EDT 7:43 PM EDT
Astronomical Twilight 5:58 AM EDT 8:13 PM EDT
Moon 6:40 PM EDT (10/12) 6:03 AM EDT (10/12)
Length of Visible Light 12h 14m
Length of Day
11h 22m
Waxing Gibbous, 99% of the Moon is Illuminated
Oct 12
Waxing Gibbous
Oct 13
Full
Oct 21
Last Quarter
Oct 27
New
Nov 4
First Quarter

Hourly Weather History & Observations

Time (EDT) Temp. Dew Point Humidity Pressure Visibility Wind Dir Wind Speed Gust Speed Precip Events Conditions
12:54 AM 60.1 °F 55.0 °F 83% 30.06 in 10.0 mi Calm Calm - N/A   Clear
1:54 AM 57.0 °F 54.0 °F 89% 30.04 in 10.0 mi Calm Calm - N/A   Clear
2:54 AM 59.0 °F 53.1 °F 81% 30.02 in 10.0 mi Calm Calm - N/A   Clear
3:54 AM 60.1 °F 52.0 °F 75% 30.01 in 10.0 mi Calm Calm - N/A   Clear
4:54 AM 55.9 °F 53.1 °F 90% 30.01 in 10.0 mi Calm Calm - N/A   Scattered Clouds
5:54 AM 57.0 °F 53.1 °F 87% 30.01 in 10.0 mi Calm Calm - N/A   Overcast
6:54 AM 57.0 °F 52.0 °F 83% 30.02 in 10.0 mi Calm Calm - N/A   Overcast
7:54 AM 57.9 °F 52.0 °F 81% 30.01 in 10.0 mi Calm Calm - N/A   Overcast
8:54 AM 59.0 °F 51.1 °F 75% 30.03 in 10.0 mi Calm Calm - N/A   Mostly Cloudy
9:54 AM 62.1 °F 53.1 °F 72% 30.03 in 10.0 mi Calm Calm - N/A   Mostly Cloudy
10:54 AM 64.0 °F 54.0 °F 70% 30.03 in 10.0 mi Calm Calm - N/A   Overcast
11:54 AM 66.9 °F 55.0 °F 66% 30.02 in 10.0 mi North 3.5 mph - N/A   Overcast
12:54 PM 73.9 °F 57.9 °F 57% 30.00 in 10.0 mi West 5.8 mph - N/A   Overcast
1:54 PM 75.9 °F 57.9 °F 54% 29.99 in 10.0 mi North 5.8 mph - N/A   Mostly Cloudy
2:54 PM 73.9 °F 57.9 °F 57% 29.99 in 10.0 mi NW 5.8 mph - N/A   Mostly Cloudy
3:54 PM 70.0 °F 55.9 °F 61% 30.01 in 10.0 mi NW 17.3 mph - N/A   Mostly Cloudy
4:54 PM 70.0 °F 55.0 °F 59% 30.02 in 10.0 mi NNW 15.0 mph - N/A   Overcast
5:54 PM 70.0 °F 54.0 °F 57% 30.03 in 10.0 mi NW 5.8 mph - N/A   Mostly Cloudy
6:54 PM 64.0 °F 52.0 °F 65% 30.04 in 10.0 mi NNW 8.1 mph - N/A   Scattered Clouds
7:54 PM 61.0 °F 50.0 °F 67% 30.06 in 10.0 mi NNW 12.7 mph - N/A   Clear
8:54 PM 61.0 °F 50.0 °F 67% 30.08 in 10.0 mi North 9.2 mph - N/A   Clear
9:54 PM 59.0 °F 51.1 °F 75% 30.09 in 10.0 mi WNW 6.9 mph - N/A   Overcast
10:54 PM 60.1 °F 50.0 °F 69% 30.08 in 10.0 mi North 6.9 mph - N/A   Overcast
11:54 PM 59.0 °F 48.9 °F 69% 30.07 in 10.0 mi NNW 6.9 mph - N/A   Mostly Cloudy